Flag for Slovakia Weather past 2 weeks in Piešťany, Slovakia

Now
39 °F

Chilly.


Feels Like: 33 °F
Forecast: 36 / 59 °F
Wind: 9 mph from North

Location: Piestany


UV Index: 3 (Moderate)

Visibility: N/A


Pressure: 30.27 "Hg

Humidity: 70%

Dew point: 30 °F

Location of PiešťanyLocation

Historic Weather in Piešťany

°F

Piešťany temperature yesterday

Maximum temperature yesterday: 46 °F (at 1:30 PM)
Minimum temperature yesterday: 37 °F (at 12:30 AM)
Average temperature yesterday: 42 °F

Past Weeks' High & Low Weather Summary

 TemperatureHumidityPressure
High73 °F (Apr 8, 4:30 PM)94% (Apr 8, 9:00 PM)30.27 "Hg (Apr 8, 9:00 PM)
Low30 °F (Apr 10, 3:30 AM)32% (Apr 2, 4:30 PM)29.71 "Hg (Apr 3, 5:00 PM)
Average50 °F69%29.98 "Hg
* Reported Apr 1 10:00 PM — Apr 16 10:00 PM, Piešťany, Weather by CustomWeather, © 2014

Note: Actual official high and low records may vary slightly from our data, if they occured in-between our weather recording intervals... More about our weather records

Advertising

Historic Weather Conditions — Data for Previous 24 hours

 ConditionsComfort  
Time TempWeatherWind HumidityBarometerVisibility
10:00 PM
Apr 16
39 °FClear.9 mph70%30.27 "Hg10 mi
9:30 PM41 °FPassing clouds.12 mph70%30.24 "HgN/A
9:00 PM41 °FPassing clouds.13 mph70%30.24 "HgN/A
8:30 PM41 °FPassing clouds.9 mph70%30.24 "HgN/A
8:00 PM43 °FPassing clouds.14 mph61%30.24 "HgN/A
7:30 PM43 °FScattered clouds.18 mph66%30.24 "HgN/A
7:00 PM45 °FScattered clouds.17 mph61%30.24 "HgN/A
6:30 PM45 °FPassing clouds.18 mph61%30.24 "HgN/A
6:00 PM46 °FPassing clouds.23 mph53%30.21 "HgN/A
5:30 PM48 °FPassing clouds.22 mph50%30.21 "HgN/A
5:00 PM48 °FPassing clouds.22 mph50%30.21 "HgN/A
4:30 PM50 °FPassing clouds.23 mph47%30.21 "HgN/A
4:00 PM50 °FPassing clouds.25 mph47%30.18 "HgN/A
3:30 PM52 °FPassing clouds.26 mph44%30.18 "HgN/A
3:00 PM52 °FPassing clouds.23 mph47%30.18 "HgN/A
2:30 PM52 °FPassing clouds.20 mph47%30.18 "HgN/A
2:00 PM52 °FPassing clouds.21 mph47%30.18 "HgN/A
1:30 PM52 °FScattered clouds.22 mph47%30.18 "HgN/A
1:00 PM50 °FScattered clouds.22 mph54%30.18 "HgN/A
12:30 PM50 °FScattered clouds.18 mph54%30.18 "HgN/A
12:00 PM50 °FScattered clouds.20 mph54%30.21 "HgN/A
11:30 AM46 °FScattered clouds.16 mph66%30.21 "HgN/A
11:00 AM46 °FScattered clouds.18 mph66%30.21 "HgN/A
10:30 AM46 °FScattered clouds.17 mph66%30.21 "HgN/A
10:00 AM45 °FScattered clouds.14 mph71%30.18 "HgN/A
9:30 AM45 °FScattered clouds.10 mph71%30.18 "HgN/A
9:00 AM45 °FBroken clouds.12 mph71%30.18 "HgN/A
8:30 AM45 °FScattered clouds.16 mph71%30.18 "HgN/A
8:00 AM45 °FPassing clouds.14 mph76%30.15 "HgN/A
7:30 AM43 °FScattered clouds.14 mph81%30.15 "HgN/A
7:00 AM41 °FScattered clouds.13 mph81%30.15 "HgN/A
6:30 AM39 °FPassing clouds.15 mph87%30.12 "HgN/A
6:00 AM41 °FPassing clouds.10 mph81%30.12 "HgN/A
5:30 AM41 °FOvercast.16 mph81%30.12 "HgN/A
5:00 AM39 °FPassing clouds.17 mph87%30.12 "HgN/A
4:30 AM41 °FPassing clouds.13 mph81%30.12 "HgN/A
4:00 AM41 °FOvercast.7 mph81%30.12 "HgN/A
3:30 AM41 °FMostly cloudy.3 mph87%30.09 "HgN/A
3:00 AM41 °FOvercast.7 mph81%30.09 "HgN/A
1:30 AM41 °FOvercast.5 mph87%30.09 "HgN/A
1:00 AM39 °FPartly cloudy.7 mph87%30.09 "HgN/A
12:00 AM39 °FMostly cloudy.1 mph87%30.09 "HgN/A
11:30 PM
Apr 15
39 °FOvercast.3 mph87%30.09 "HgN/A
11:00 PM37 °FOvercast.2 mph93%30.09 "HgN/A
10:30 PM37 °FMostly cloudy.6 mph87%30.09 "HgN/A
10:00 PM39 °FPartly cloudy.7 mph87%30.09 "HgN/A
Weather by CustomWeather, © 2014

See weather overview